User: anonymous   Login
Location: Jetmore Oil Field
(38.1181°N, 99.9337°W)
Time: 01:33:55
(UTC+00:00)
Language:

STARLINK-2705 - Orbit

View from above orbital plane
View from above orbital plane
View from above satellite
View from above satellite

Ground track
Ground track

The orbit data is extracted from the following two-line orbital elements,

1 48672C 21044AL  21268.73438153 -.00017992  00000-0 -12054-2 0  2684
2 48672  53.0546 210.8005 0001839  64.0061 351.1214 15.06418732    11
Epoch (UTC): 25 September 2021 17:37:30
Eccentricity: 0.0001839
inclination: 53.0546°
perigee height: 546 km
apogee height: 548 km
right ascension of ascending node: 210.8005°
argument of perigee: 64.0061°
revolutions per day: 15.06418732
mean anomaly at epoch: 351.1214°
orbit number at epoch: 1

The dashed part of the orbit path shows where the satellite is in the earth's shadow,  

DLR